Regional Weather Roundup
Issued by NWS State College, PA

Home | Current Version | Previous Version | Graphics & Text | Print | Product List | Glossary Off
Versions: 1 2 3 4 5 6 7 8 9 10 11 12 13 14 15 16 17 18 19 20 21 22 23 24 25 26 27 28 29 30 31 32 33 34 35 36 37 38 39 40 41 42 43 44 45 46 47 48 49 50

000
ASUS41 KCTP 040310
RWRCTP

REGIONAL WEATHER ROUNDUP
NATIONAL WEATHER SERVICE STATE COLLEGE PA
1100 PM EDT MON AUG 03 2015

Note: "fair" indicates few or no clouds below 12,000 feet with no
significant weather and/or obstructions to visibility.

* = STATION THAT DOES NOT REPORT PRECIPITATION /E.G. RAIN...SNOW...ETC/
    THUNDER OR FOG.

PAZ002>004-007>009-013>016-020>023-029>032-040400-
WESTERN PENNSYLVANIA

CITY           SKY/WX    TMP DP  RH WIND       PRES   REMARKS
ERIE           MOCLDY    69  62  78 SW5       29.83R
MEADVILLE      MOCLDY    67  60  78 CALM      29.86R
FRANKLIN*      MOCLDY    64  57  77 CALM      29.86F
NEW CASTLE     FAIR      70  65  84 CALM      29.86R
BEAVER COUNTY  NOT AVBL
BUTLER*        MOCLDY    64  63  94 CALM      29.88F
PITTSBURGH INT MOCLDY    67  63  87 CALM      29.86F
PITTSBURGH     MOCLDY    66  62  87 MISG      29.88R FOG
INDIANA*       NOT AVBL
LATROBE        NOT AVBL
WASHINGTON CO* NOT AVBL
$$

PAZ004>006-010>012-017>019-024>028-033>037-041-042-045-046-049>053-040400-
CENTRAL PENNSYLVANIA

CITY           SKY/WX    TMP DP  RH WIND       PRES   REMARKS
BRADFORD       PTCLDY    61  58  90 CALM      29.88S
DUBOIS         CLOUDY    67  63  87 SW5       29.86F
CLEARFIELD     CLOUDY    68  63  84 S5        29.86F
JOHNSTOWN      CLOUDY    65  61  87 S5        29.90F
ALTOONA        MOCLDY    70  61  73 S6        29.87S
STATE COLLEGE  CLOUDY    71  64  80 W7        29.85S
WILLIAMSPORT   MOCLDY    75  62  64 N3        29.80R
SELINSGROVE    MOCLDY    68  66  93 CALM      29.82R
FT INDIANTOWN  MOCLDY    69  68  95 NE3       29.82S
CAPITAL CITY   MOCLDY    78  64  61 SW6       29.81S
HARRISBURG     MOCLDY    80  66  62 SW9       29.81R
YORK           MOCLDY    78  64  61 SW5       29.83S
$$

PAZ038>040-043-044-047-048-054-055-060>062-067>071-040400-
EASTERN PENNSYLVANIA

CITY           SKY/WX    TMP DP  RH WIND       PRES   REMARKS
SCRANTON       CLOUDY    78  62  57 S6        29.82S
MOUNT POCONO   MOCLDY    71  62  73 SW8       29.89S
ALLENTOWN      MOCLDY    72  66  81 SW3       29.82F
QUAKERTOWN*    PTCLDY    73  66  78 CALM      29.84F
READING        PTCLDY    74  66  76 SW3       29.81F
LANCASTER      PTCLDY    79  62  56 SW8       29.82S
COATESVILLE    PTCLDY    75  68  78 CALM      29.86S
POTTSTOWN      PTCLDY    77  67  71 S5        29.84F
BLUE BELL      PTCLDY    79  66  65 S3        29.82F
DOYLESTOWN     PTCLDY    76  63  64 S5        29.83S
WILLOW GROVE   NOT AVBL
NORTH PHILA    CLEAR     83  65  54 VRB5      29.83F
PHILADELPHIA   PTCLDY    81  67  62 SW7       29.83S
$$


USA.gov is the U.S. government's official web portal to all federal, state and local government web resources and services.